Location: Bun Machan
(52.1403°N, 7.3744°W)
Time: 18:39:46
(UTC+00:00)

Cosmos 1536 - Pass Details

Date: 14 July 2020
Orbit: 539 x 560 km, 82.5° (Epoch: 12 August)

Event Time Altitude Azimuth Distance (km) Brightness Sun altitude
Exits shadow 03:38:33 - 215° (SW) 2,037 5.0 -6.2°
Reaches altitude 10° 03:39:03 10° 218° (SW) 1,844 4.8 -6.1°
Maximum altitude 03:42:52 39° 287° (WNW) 854 3.6 -5.7°
Drops below altitude 10° 03:46:42 10° 357° (N) 1,849 6.2 -5.3°
Sets 03:49:00 0° 6° (N) 2,746 7.3 -5.1°
